AVA4814 SKBO-SKBG

Flight info

Callsign AVA4814
Flight time 0h 31m
Altitude 23000
Route OSUSU4R KOVBU A567 OPROG OPROG1B
Aircraft A320/M-SDE3FGHIRWY/LB1

Departure

Time 2026-04-22 14:50
Airport El Dorado International Airport (SKBO)

Arrival

Time 2026-04-22 15:21
Airport Palonegro Airport (SKBG)
Time Latitude Longitude Altitude Speed Heading
2026-04-22 14:27 4.69777 -74.14525 8366 ft 0 kts 38°
2026-04-22 14:37 4.69776 -74.14525 8366 ft 1 kts 38°
2026-04-22 14:37 4.69756 -74.14538 8366 ft 4 kts 17°
2026-04-22 14:37 4.69730 -74.14540 8366 ft 4 kts 339°
2026-04-22 14:38 4.69712 -74.14529 8366 ft 0 kts 307°
2026-04-22 14:40 4.69715 -74.14533 8366 ft 2 kts 307°
2026-04-22 14:40 4.69733 -74.14557 8366 ft 6 kts 307°
2026-04-22 14:41 4.69767 -74.14602 8366 ft 10 kts 307°
2026-04-22 14:41 4.69812 -74.14661 8366 ft 12 kts 308°
2026-04-22 14:41 4.69862 -74.14729 8366 ft 12 kts 304°
2026-04-22 14:41 4.69925 -74.14772 8366 ft 12 kts
2026-04-22 14:42 4.69992 -74.14730 8366 ft 12 kts 37°
2026-04-22 14:42 4.70057 -74.14680 8366 ft 12 kts 37°
2026-04-22 14:42 4.70124 -74.14630 8366 ft 12 kts 37°
2026-04-22 14:42 4.70192 -74.14579 8366 ft 12 kts 37°
2026-04-22 14:43 4.70262 -74.14526 8367 ft 13 kts 37°
2026-04-22 14:43 4.70332 -74.14474 8366 ft 13 kts 37°
2026-04-22 14:43 4.70403 -74.14420 8366 ft 13 kts 36°
2026-04-22 14:43 4.70478 -74.14399 8367 ft 11 kts 324°
2026-04-22 14:44 4.70526 -74.14459 8366 ft 11 kts 307°
2026-04-22 14:44 4.70570 -74.14517 8367 ft 10 kts 307°
2026-04-22 14:44 4.70578 -74.14527 8366 ft 0 kts 307°
2026-04-22 14:45 4.70582 -74.14533 8367 ft 4 kts 307°
2026-04-22 14:45 4.70610 -74.14569 8366 ft 9 kts 307°
2026-04-22 14:45 4.70657 -74.14632 8367 ft 13 kts 307°
2026-04-22 14:45 4.70713 -74.14705 8366 ft 14 kts 307°
2026-04-22 14:46 4.70771 -74.14782 8367 ft 14 kts 307°
2026-04-22 14:46 4.70832 -74.14863 8367 ft 15 kts 307°
2026-04-22 14:46 4.70896 -74.14948 8366 ft 15 kts 307°
2026-04-22 14:46 4.70940 -74.15006 8366 ft 16 kts 307°
2026-04-22 14:47 4.71032 -74.15127 8366 ft 17 kts 307°
2026-04-22 14:47 4.71073 -74.15182 8366 ft 9 kts 307°
2026-04-22 14:47 4.71110 -74.15231 8367 ft 9 kts 307°
2026-04-22 14:47 4.71150 -74.15281 8367 ft 9 kts 316°
2026-04-22 14:48 4.71212 -74.15298 8366 ft 10 kts
2026-04-22 14:48 4.71285 -74.15245 8366 ft 10 kts 43°
2026-04-22 14:48 4.71321 -74.15210 8366 ft 9 kts 49°
2026-04-22 14:48 4.71315 -74.15172 8365 ft 0 kts 128°
2026-04-22 14:49 4.71313 -74.15170 8366 ft 5 kts 128°
2026-04-22 14:49 4.71136 -74.14939 8364 ft 78 kts 127°
2026-04-22 14:49 4.70678 -74.14332 8367 ft 138 kts 127°
2026-04-22 14:49 4.69997 -74.13429 8373 ft 185 kts 126°
2026-04-22 14:50 4.69199 -74.12361 8938 ft 196 kts 127°
2026-04-22 14:50 4.68566 -74.11178 9716 ft 194 kts 97°
2026-04-22 14:50 4.68851 -74.09897 10231 ft 193 kts 50°
2026-04-22 14:50 4.69958 -74.09198 10688 ft 192 kts 13°
2026-04-22 14:51 4.71243 -74.08877 11154 ft 189 kts 16°
2026-04-22 14:51 4.72500 -74.08509 11546 ft 191 kts 17°
2026-04-22 14:51 4.73836 -74.08086 11690 ft 210 kts 17°
2026-04-22 14:51 4.75284 -74.07619 11814 ft 233 kts 18°
2026-04-22 14:52 4.76886 -74.07095 11946 ft 251 kts 18°
2026-04-22 14:52 4.78604 -74.06528 12141 ft 270 kts 19°
2026-04-22 14:52 4.80409 -74.05921 12672 ft 276 kts 19°
2026-04-22 14:52 4.82244 -74.05299 13316 ft 280 kts 19°
2026-04-22 14:53 4.84102 -74.04670 13977 ft 284 kts 19°
2026-04-22 14:53 4.85983 -74.04032 14583 ft 287 kts 19°
2026-04-22 14:53 4.87889 -74.03385 15152 ft 291 kts 18°
2026-04-22 14:53 4.89817 -74.02733 15715 ft 294 kts 18°
2026-04-22 14:54 4.91765 -74.02076 16306 ft 297 kts 18°
2026-04-22 14:54 4.93732 -74.01411 16879 ft 300 kts 18°
2026-04-22 14:54 4.95722 -74.00738 17449 ft 304 kts 18°
2026-04-22 14:54 4.97733 -74.00055 18015 ft 307 kts 18°
2026-04-22 14:55 4.99803 -73.99351 18251 ft 323 kts 18°
2026-04-22 14:55 5.01998 -73.98612 18381 ft 342 kts 17°
2026-04-22 14:55 5.04342 -73.97927 18510 ft 359 kts 14°
2026-04-22 14:55 5.06819 -73.97298 18643 ft 375 kts 13°
2026-04-22 14:56 5.09402 -73.96688 18864 ft 386 kts 12°
2026-04-22 14:56 5.12041 -73.96075 19254 ft 391 kts 12°
2026-04-22 14:56 5.14697 -73.95449 19719 ft 394 kts 13°
2026-04-22 14:56 5.17372 -73.94803 20186 ft 396 kts 13°
2026-04-22 14:57 5.20055 -73.94143 20639 ft 399 kts 13°
2026-04-22 14:57 5.22758 -73.93470 21104 ft 401 kts 13°
2026-04-22 14:57 5.25474 -73.92789 21559 ft 404 kts 13°
2026-04-22 14:57 5.28207 -73.92101 21994 ft 406 kts 13°
2026-04-22 14:58 5.30953 -73.91411 22443 ft 409 kts 13°
2026-04-22 14:58 5.33723 -73.90718 22884 ft 411 kts 13°
2026-04-22 14:58 5.36506 -73.90023 23234 ft 413 kts 13°
2026-04-22 14:58 5.39294 -73.89327 23307 ft 407 kts 13°
2026-04-22 14:59 5.41999 -73.88653 23318 ft 398 kts 13°
2026-04-22 14:59 5.44677 -73.87986 23319 ft 395 kts 13°
2026-04-22 14:59 5.47341 -73.87324 23317 ft 394 kts 13°
2026-04-22 14:59 5.50004 -73.86664 23318 ft 394 kts 13°
2026-04-22 15:00 5.52650 -73.85938 23303 ft 395 kts 19°
2026-04-22 15:00 5.55143 -73.84793 23301 ft 395 kts 29°
2026-04-22 15:00 5.57538 -73.83429 23300 ft 396 kts 29°
2026-04-22 15:00 5.59930 -73.82067 23307 ft 395 kts 29°
2026-04-22 15:01 5.62326 -73.80707 23306 ft 395 kts 28°
2026-04-22 15:01 5.64720 -73.79350 23299 ft 395 kts 28°
2026-04-22 15:01 5.67113 -73.77996 23294 ft 395 kts 28°
2026-04-22 15:01 5.69511 -73.76643 23298 ft 395 kts 28°
2026-04-22 15:02 5.71906 -73.75292 23287 ft 395 kts 28°
2026-04-22 15:02 5.74297 -73.73941 23283 ft 395 kts 28°
2026-04-22 15:02 5.76694 -73.72586 23280 ft 396 kts 28°
2026-04-22 15:02 5.79093 -73.71228 23280 ft 395 kts 28°
2026-04-22 15:03 5.81454 -73.69892 23280 ft 395 kts 28°
2026-04-22 15:03 5.83857 -73.68532 23269 ft 395 kts 28°
2026-04-22 15:03 5.86251 -73.67177 23272 ft 395 kts 28°
2026-04-22 15:03 5.88645 -73.65822 23264 ft 395 kts 29°
2026-04-22 15:04 5.91034 -73.64468 23256 ft 394 kts 28°
2026-04-22 15:04 5.93420 -73.63116 23246 ft 394 kts 29°
2026-04-22 15:04 5.95807 -73.61765 23242 ft 394 kts 28°
2026-04-22 15:04 5.98197 -73.60411 23236 ft 394 kts 28°
2026-04-22 15:05 6.00586 -73.59056 23227 ft 394 kts 29°
2026-04-22 15:05 6.02973 -73.57699 23218 ft 394 kts 29°
2026-04-22 15:05 6.05359 -73.56347 23213 ft 394 kts 28°
2026-04-22 15:05 6.07751 -73.54993 23204 ft 394 kts 28°
2026-04-22 15:06 6.10143 -73.53642 23199 ft 394 kts 28°
2026-04-22 15:06 6.12528 -73.52292 23192 ft 390 kts 29°
2026-04-22 15:06 6.14852 -73.50975 23054 ft 378 kts 29°
2026-04-22 15:06 6.17119 -73.49686 22727 ft 372 kts 29°
2026-04-22 15:07 6.19359 -73.48415 22308 ft 369 kts 28°
2026-04-22 15:07 6.21584 -73.47149 21903 ft 366 kts 29°
2026-04-22 15:07 6.23794 -73.45894 21466 ft 364 kts 29°
2026-04-22 15:07 6.25992 -73.44647 21075 ft 361 kts 28°
2026-04-22 15:08 6.28172 -73.43411 20678 ft 359 kts 28°
2026-04-22 15:08 6.30344 -73.42181 20290 ft 357 kts 28°
2026-04-22 15:08 6.32502 -73.40959 19910 ft 355 kts 29°
2026-04-22 15:08 6.34648 -73.39740 19539 ft 353 kts 29°
2026-04-22 15:09 6.36782 -73.38528 19177 ft 351 kts 29°
2026-04-22 15:09 6.38900 -73.37325 18811 ft 350 kts 29°
2026-04-22 15:09 6.41016 -73.36122 18456 ft 348 kts 29°
2026-04-22 15:09 6.43117 -73.34929 18084 ft 346 kts 28°
2026-04-22 15:10 6.45208 -73.33743 17715 ft 344 kts 28°
2026-04-22 15:10 6.47285 -73.32566 17349 ft 342 kts 28°
2026-04-22 15:10 6.49352 -73.31393 16993 ft 340 kts 29°
2026-04-22 15:10 6.51407 -73.30225 16657 ft 338 kts 28°
2026-04-22 15:11 6.53444 -73.29068 16320 ft 336 kts 28°
2026-04-22 15:11 6.55475 -73.27913 15990 ft 334 kts 29°
2026-04-22 15:11 6.57491 -73.26768 15677 ft 332 kts 29°
2026-04-22 15:11 6.59498 -73.25627 15382 ft 330 kts 29°
2026-04-22 15:12 6.61520 -73.24478 14744 ft 340 kts 29°
2026-04-22 15:12 6.63597 -73.23296 14204 ft 345 kts 29°
2026-04-22 15:12 6.65688 -73.22106 13810 ft 344 kts 29°
2026-04-22 15:12 6.67753 -73.20930 13207 ft 338 kts 29°
2026-04-22 15:13 6.69768 -73.19784 12481 ft 335 kts 29°
2026-04-22 15:13 6.71795 -73.18634 11660 ft 335 kts 29°
2026-04-22 15:13 6.73837 -73.17474 11048 ft 328 kts 29°
2026-04-22 15:13 6.75754 -73.16385 10671 ft 314 kts 30°
2026-04-22 15:14 6.77647 -73.15310 10327 ft 301 kts 30°
2026-04-22 15:14 6.79412 -73.14307 9998 ft 289 kts 30°
2026-04-22 15:14 6.81126 -73.13333 9660 ft 277 kts 30°
2026-04-22 15:14 6.82790 -73.12388 9354 ft 265 kts 29°
2026-04-22 15:15 6.84359 -73.11497 9071 ft 254 kts 30°
2026-04-22 15:15 6.85850 -73.10646 8788 ft 246 kts 30°
2026-04-22 15:15 6.87371 -73.09899 8516 ft 236 kts 16°
2026-04-22 15:15 6.88961 -73.09691 8261 ft 228 kts 356°
2026-04-22 15:16 6.90484 -73.10010 8020 ft 221 kts 339°
2026-04-22 15:16 6.91872 -73.10564 7767 ft 214 kts 338°
2026-04-22 15:16 6.93242 -73.11105 7524 ft 209 kts 338°
2026-04-22 15:16 6.94581 -73.11634 7287 ft 199 kts 338°
2026-04-22 15:17 6.95839 -73.12127 7064 ft 190 kts 338°
2026-04-22 15:17 6.97014 -73.12586 6851 ft 178 kts 339°
2026-04-22 15:17 6.98142 -73.13012 6640 ft 167 kts 339°
2026-04-22 15:17 6.99197 -73.13408 6413 ft 159 kts 339°
2026-04-22 15:18 7.00221 -73.13791 6218 ft 156 kts 339°
2026-04-22 15:18 7.01237 -73.14173 6018 ft 155 kts 339°
2026-04-22 15:18 7.02261 -73.14559 5821 ft 155 kts 339°
2026-04-22 15:18 7.03266 -73.14937 5626 ft 154 kts 339°
2026-04-22 15:19 7.04254 -73.15310 5436 ft 153 kts 339°
2026-04-22 15:19 7.05262 -73.15688 5235 ft 152 kts 339°
2026-04-22 15:19 7.06257 -73.16053 5025 ft 152 kts 340°
2026-04-22 15:19 7.07236 -73.16414 4858 ft 152 kts 339°
2026-04-22 15:20 7.07902 -73.16666 4733 ft 152 kts 339°
2026-04-22 15:20 7.09203 -73.17160 4438 ft 150 kts 339°
2026-04-22 15:20 7.10188 -73.17535 4192 ft 149 kts 339°
2026-04-22 15:20 7.11152 -73.17899 4000 ft 148 kts 339°
2026-04-22 15:21 7.12106 -73.18273 3883 ft 140 kts 339°
2026-04-22 15:21 7.12792 -73.18531 3905 ft 65 kts 340°
2026-04-22 15:21 7.12919 -73.18556 3912 ft 3 kts 83°
2026-04-22 15:21 7.12921 -73.18540 3912 ft 2 kts 85°
2026-04-22 15:22 7.12922 -73.18529 3912 ft 4 kts 84°
2026-04-22 15:22 7.12929 -73.18496 3912 ft 5 kts 76°
2026-04-22 15:22 7.12914 -73.18474 3906 ft 4 kts 139°
2026-04-22 15:22 7.12878 -73.18457 3909 ft 7 kts 159°
2026-04-22 15:23 7.12830 -73.18439 3908 ft 7 kts 159°
2026-04-22 15:23 7.12778 -73.18419 3906 ft 9 kts 159°
2026-04-22 15:23 7.12717 -73.18396 3903 ft 10 kts 160°
2026-04-22 15:23 7.12683 -73.18357 3901 ft 6 kts 94°
2026-04-22 15:24 7.12681 -73.18344 3901 ft 0 kts 99°
2026-04-22 15:25 7.12679 -73.18331 3902 ft 5 kts 99°
2026-04-22 15:26 7.12684 -73.18289 3897 ft 8 kts 65°
2026-04-22 15:26 7.12680 -73.18241 3897 ft 6 kts 100°
2026-04-22 15:26 7.12675 -73.18202 3900 ft 5 kts 98°
2026-04-22 15:26 7.12674 -73.18197 3900 ft 0 kts 100°
2026-04-22 15:30 7.12670 -73.18175 3900 ft 6 kts 101°
2026-04-22 15:30 7.12680 -73.18158 3900 ft 1 kts 31°
2026-04-22 15:31 7.12691 -73.18156 3896 ft 3 kts 13°
2026-04-22 15:31 7.12716 -73.18150 3898 ft 5 kts 13°
2026-04-22 15:31 7.12718 -73.18149 3898 ft 0 kts 13°